Regional Weather Roundup
Issued by NWS Little Rock, AR

Home | Current Version | Previous Version | Text Only | Print | Product List | Glossary On
Versions: 1 2 3 4 5 6 7 8 9 10 11 12 13 14 15 16 17 18 19 20 21 22 23 24 25 26 27 28 29 30 31 32 33 34 35 36 37 38 39 40 41 42 43 44 45 46 47 48 49 50
000
ASUS44 KLZK 200005
RWRLZK

WEATHER ROUNDUP FOR ARKANSAS
NATIONAL WEATHER SERVICE LITTLE ROCK AR
700 PM CDT SUN APR 19 2015

NOTE: "FAIR" INDICATES FEW OR NO CLOUDS BELOW 12,000 FEET WITH NO
SIGNIFICANT WEATHER AND/OR OBSTRUCTIONS TO VISIBILITY.

ARZ001-003-010-029-200100-
NORTHWEST ARKANSAS

CITY           SKY/WX    TMP DP  RH WIND       PRES   REMARKS
FAYETTEVILLE   LGT RAIN  55  54  96 S10       29.67S
6HR MIN TEMP:  53; 6HR MAX TEMP:  70; 6HR PCP:  0.40;

FORT SMITH     LGT RAIN  60  53  77 W13       29.69R
6HR MIN TEMP:  60; 6HR MAX TEMP:  77; 6HR PCP:  0.11;

HARRISON       LGT RAIN  60  56  86 W3        29.61F
6HR MIN TEMP:  59; 6HR MAX TEMP:  75; 6HR PCP:  0.05;

BENTONVILLE    CLOUDY    59  52  77 SW3       29.64F
6HR MIN TEMP:  57; 6HR MAX TEMP:  70; 6HR PCP:  0.09;

ROGERS         LGT RAIN  58  54  86 CALM      29.64S
6HR MIN TEMP:  57; 6HR MAX TEMP:  68;

SILOAM SPGS    CLOUDY    61  50  67 W8        29.68S
6HR MIN TEMP:  57; 6HR MAX TEMP:  68; 6HR PCP:  0.17;

HIGHFILL       CLOUDY    60  53  77 SW6       29.63F
6HR MIN TEMP:  58; 6HR MAX TEMP:  69; 6HR PCP:  0.14;

SPRINGDALE     MOCLDY    57  55  94 CALM      29.67R
$$

ARZ004-005-016-200100-
NORTH CENTRAL ARKANSAS

CITY           SKY/WX    TMP DP  RH WIND       PRES   REMARKS
BATESVILLE     MOCLDY    70  54  56 W13G21    29.59R
6HR MIN TEMP:  70; 6HR MAX TEMP:  81; 6HR PCP:  0.01;

FLIPPIN        CLOUDY    61 N/A N/A CALM      29.58F
6HR MIN TEMP:  61; 6HR MAX TEMP:  75; 6HR PCP:  0.08;

MTN HOME       LGT RAIN  60  57  89 S5        29.59F
6HR MIN TEMP:  59; 6HR MAX TEMP:  76; 6HR PCP:  0.09;

$$

ARZ040-041-200100-
WEST CENTRAL ARKANSAS

CITY           SKY/WX    TMP DP  RH WIND       PRES   REMARKS
MENA           MOCLDY    64  59  82 W12G22    29.66R
MOUNT IDA      CLOUDY    70  57  63 NW8G17    29.59R
6HR MIN TEMP:  70; 6HR MAX TEMP:  81; 6HR PCP: TRACE;

$$

ARZ009-017-025-026-028-200100-
NORTHEAST ARKANSAS

CITY           SKY/WX    TMP DP  RH WIND       PRES   REMARKS
CORNING          N/A     68  61  77 NE7       29.54F
JONESBORO      CLEAR     72  58  61 S14       29.54S
6HR MIN TEMP:  69; 6HR MAX TEMP:  75;

NEWPORT        CLEAR     73  60  63 S10       29.56R
6HR MIN TEMP:  72; 6HR MAX TEMP:  82; 6HR PCP: TRACE;

WALNUT RIDGE   MOCLDY    70  57  64 E6        29.53F
6HR MIN TEMP:  70; 6HR MAX TEMP:  79;

BLYTHEVILLE    CLOUDY    68  59  73 N5        29.58R
6HR MIN TEMP:  66; 6HR MAX TEMP:  75; 6HR PCP:  0.27;

$$

ARZ022-023-033-042-044-200100-
CENTRAL ARKANSAS

CITY           SKY/WX    TMP DP  RH WIND       PRES   REMARKS
LITTLE ROCK    LGT RAIN  71  58  63 SW14G24   29.58R
6HR MIN TEMP:  71; 6HR MAX TEMP:  82; 6HR PCP:  0.02;

N LITTLE ROCK  CLOUDY    74  60  61 SW8G15    29.58R
6HR MIN TEMP:  73; 6HR MAX TEMP:  80;

JACKSONVILLE   LGT RAIN  76  58  54 SW9       29.57R
6HR MIN TEMP:  75; 6HR MAX TEMP:  82; 6HR PCP: TRACE;

SEARCY         MOCLDY    70  54  56 NW18G35   29.61R
6HR MIN TEMP:  70; 6HR MAX TEMP:  80;

HOT SPRINGS    PTCLDY    67  64  90 S5        29.57F
6HR MIN TEMP:  66; 6HR MAX TEMP:  81; 6HR PCP:  0.21;

RUSSELLVILLE   MOCLDY    63  59  87 SW3       29.59R
6HR MIN TEMP:  61; 6HR MAX TEMP:  80; 6HR PCP:  0.65;

CLINTON        FAIR      61  59  94 SE7       29.59F FOG
$$

ARZ036-200100-
EAST ARKANSAS

CITY           SKY/WX    TMP DP  RH WIND       PRES   REMARKS
WEST MEMPHIS   CLEAR     73  61  65 S9        29.57S
6HR MIN TEMP:  67; 6HR MAX TEMP:  76; 6HR PCP: TRACE;

$$

ARZ050-053-066-070-073-200100-
SOUTHWEST ARKANSAS

CITY           SKY/WX    TMP DP  RH WIND       PRES   REMARKS
ARKADELPHIA    FAIR      74  68  81 SW9       29.60R
6HR MIN TEMP:  69; 6HR MAX TEMP:  82; 6HR PCP:  0.10;

CAMDEN         MOCLDY    75  59  57 NE9       29.61R
TEXARKANA      CLEAR     75  62  64 W16G24    29.64R
6HR MIN TEMP:  71; 6HR MAX TEMP:  79; 6HR PCP:  0.09;

EL DORADO      MOCLDY    75  63  66 SW8       29.64S
6HR MIN TEMP:  74; 6HR MAX TEMP:  80;

DE QUEEN       CLEAR     72  56  57 W13       29.62R
6HR MIN TEMP:  72; 6HR MAX TEMP:  78;

$$

ARZ056-057-069-200100-
SOUTHEAST ARKANSAS

CITY           SKY/WX    TMP DP  RH WIND       PRES   REMARKS
PINE BLUFF     LGT RAIN  74  62  66 SW5       29.57F
6HR MIN TEMP:  73; 6HR MAX TEMP:  81;

STUTTGART      MOCLDY    75  59  57 S10       29.58S
6HR MIN TEMP:  75; 6HR MAX TEMP:  81;

MONTICELLO     PTCLDY    77  64  64 SW12      29.61S
6HR MIN TEMP:  76; 6HR MAX TEMP:  80;


$$




USA.gov is the U.S. government's official web portal to all federal, state and local government web resources and services.